Year,Month,Day,Hour,Minute,Value (Times are PST for temperature in C)
2011,05,24,02,05,9.00
2011,05,24,02,06,9.00
2011,05,24,02,07,8.90
2011,05,24,02,08,8.90
2011,05,24,02,09,8.80
2011,05,24,02,10,8.80
2011,05,24,02,11,8.70
2011,05,24,02,12,8.70
2011,05,24,02,13,8.60
2011,05,24,02,14,8.60
2011,05,24,02,15,8.50
2011,05,24,02,16,8.50
2011,05,24,02,17,8.40
2011,05,24,02,18,8.40
2011,05,24,02,19,8.30
2011,05,24,02,20,8.30
2011,05,24,02,21,8.20
2011,05,24,02,22,8.20
2011,05,24,02,23,8.20
2011,05,24,02,24,8.10
2011,05,24,02,25,8.00
2011,05,24,02,26,8.00
2011,05,24,02,27,8.00
2011,05,24,02,28,7.90
2011,05,24,02,29,7.90
2011,05,24,02,30,7.80
2011,05,24,02,31,7.80
2011,05,24,02,32,7.80
2011,05,24,02,33,7.70
2011,05,24,02,34,7.70
2011,05,24,02,35,7.60
2011,05,24,02,36,7.60
2011,05,24,02,37,7.50
2011,05,24,02,38,7.50
2011,05,24,02,39,7.40
2011,05,24,02,40,7.30
2011,05,24,02,41,7.30
2011,05,24,02,42,7.30
2011,05,24,02,43,7.30
2011,05,24,02,44,7.20
2011,05,24,02,45,7.20
2011,05,24,02,46,7.20
2011,05,24,02,47,7.10
2011,05,24,02,48,7.10
2011,05,24,02,49,7.10
2011,05,24,02,50,7.00
2011,05,24,02,51,7.00
2011,05,24,02,52,7.00
2011,05,24,02,53,7.00
2011,05,24,02,54,7.00
2011,05,24,02,55,7.00
2011,05,24,02,56,7.00
2011,05,24,02,57,6.90
2011,05,24,02,58,6.90
2011,05,24,02,59,6.90
2011,05,24,03,00,6.90
2011,05,24,03,01,6.90
2011,05,24,03,02,6.90
2011,05,24,03,03,6.90
2011,05,24,03,04,6.90
2011,05,24,03,05,6.90
2011,05,24,03,06,6.90
2011,05,24,03,07,6.90
2011,05,24,03,08,6.90
2011,05,24,03,09,6.90
2011,05,24,03,10,6.90
2011,05,24,03,11,6.90
2011,05,24,03,12,6.90
2011,05,24,03,13,6.90
2011,05,24,03,14,6.90
2011,05,24,03,15,6.90
2011,05,24,03,16,6.90
2011,05,24,03,17,6.90
2011,05,24,03,18,6.80
2011,05,24,03,19,6.80
2011,05,24,03,20,6.80
2011,05,24,03,21,6.80
2011,05,24,03,22,6.80
2011,05,24,03,23,6.80
2011,05,24,03,24,6.80
2011,05,24,03,25,6.80
2011,05,24,03,26,6.80
2011,05,24,03,27,6.80
2011,05,24,03,28,6.80
2011,05,24,03,29,6.80
2011,05,24,03,30,6.70
2011,05,24,03,31,6.70
2011,05,24,03,32,6.70
2011,05,24,03,33,6.70
2011,05,24,03,34,6.70
2011,05,24,03,35,6.60
2011,05,24,03,36,6.60
2011,05,24,03,37,6.60
2011,05,24,03,38,6.60
2011,05,24,03,39,6.60
2011,05,24,03,40,6.60
2011,05,24,03,41,6.60
2011,05,24,03,42,6.60
2011,05,24,03,43,6.60
2011,05,24,03,44,6.50
2011,05,24,03,45,6.40
2011,05,24,03,46,6.40
2011,05,24,03,47,6.40
2011,05,24,03,48,6.40
2011,05,24,03,49,6.40
2011,05,24,03,50,6.40
2011,05,24,03,51,6.40
2011,05,24,03,52,6.50
2011,05,24,03,53,6.60
2011,05,24,03,54,6.60
2011,05,24,03,55,6.60
2011,05,24,03,56,6.60
2011,05,24,03,57,6.60
2011,05,24,03,58,6.60
2011,05,24,03,59,6.60
2011,05,24,04,00,6.60
2011,05,24,04,01,6.60
2011,05,24,04,02,6.60
2011,05,24,04,03,6.60
2011,05,24,04,04,6.60
2011,05,24,04,05,6.70
2011,05,24,04,06,6.70
2011,05,24,04,07,6.70
2011,05,24,04,08,6.80
2011,05,24,04,09,6.80
2011,05,24,04,10,6.80
2011,05,24,04,11,6.80
2011,05,24,04,12,6.80
2011,05,24,04,13,6.80
2011,05,24,04,14,6.80
2011,05,24,04,15,6.80
2011,05,24,04,16,6.80
2011,05,24,04,17,6.70
2011,05,24,04,18,6.70
2011,05,24,04,19,6.70
2011,05,24,04,20,6.70
2011,05,24,04,21,6.70
2011,05,24,04,22,6.60
2011,05,24,04,23,6.60
2011,05,24,04,24,6.60
2011,05,24,04,25,6.60
2011,05,24,04,26,6.50
2011,05,24,04,27,6.40
2011,05,24,04,28,6.40
2011,05,24,04,29,6.40
2011,05,24,04,30,6.30
2011,05,24,04,31,6.30
2011,05,24,04,32,6.30
2011,05,24,04,33,6.30
2011,05,24,04,34,6.20
2011,05,24,04,35,6.20
2011,05,24,04,36,6.20
2011,05,24,04,37,6.20
2011,05,24,04,38,6.20
2011,05,24,04,39,6.20
2011,05,24,04,40,6.20
2011,05,24,04,41,6.20
2011,05,24,04,42,6.20
2011,05,24,04,43,6.20
2011,05,24,04,44,6.20
2011,05,24,04,45,6.20
2011,05,24,04,46,6.20
2011,05,24,04,47,6.20
2011,05,24,04,48,6.20
2011,05,24,04,49,6.20
2011,05,24,04,50,6.20
2011,05,24,04,51,6.20
2011,05,24,04,52,6.20
2011,05,24,04,53,6.20
2011,05,24,04,54,6.20
2011,05,24,04,55,6.20
2011,05,24,04,56,6.20
2011,05,24,04,57,6.20
2011,05,24,04,58,6.20
2011,05,24,04,59,6.20
2011,05,24,05,00,6.20
2011,05,24,05,01,6.20
2011,05,24,05,02,6.20
2011,05,24,05,03,6.20
2011,05,24,05,04,6.20
2011,05,24,05,05,6.20
2011,05,24,05,06,6.20
2011,05,24,05,07,6.10
2011,05,24,05,08,6.10
2011,05,24,05,09,6.10
2011,05,24,05,10,6.10
2011,05,24,05,11,6.10
2011,05,24,05,12,6.10
2011,05,24,05,13,6.10
2011,05,24,05,14,6.10
2011,05,24,05,15,6.10
2011,05,24,05,16,6.10
2011,05,24,05,17,6.10
2011,05,24,05,18,6.10
2011,05,24,05,19,6.00
2011,05,24,05,20,6.00
2011,05,24,05,21,6.00
2011,05,24,05,22,6.00
2011,05,24,05,23,6.00
2011,05,24,05,24,6.00
2011,05,24,05,25,6.00
2011,05,24,05,26,6.00
2011,05,24,05,27,6.00
2011,05,24,05,28,5.90
2011,05,24,05,29,5.90
2011,05,24,05,30,5.90
2011,05,24,05,31,5.90
2011,05,24,05,32,5.80
2011,05,24,05,33,5.80
2011,05,24,05,34,5.80
2011,05,24,05,35,5.80
2011,05,24,05,36,5.80
2011,05,24,05,37,5.70
2011,05,24,05,38,5.70
2011,05,24,05,39,5.70
2011,05,24,05,40,5.70
2011,05,24,05,41,5.70
2011,05,24,05,42,5.70
2011,05,24,05,43,5.70
2011,05,24,05,44,5.70
2011,05,24,05,45,5.70
2011,05,24,05,46,5.70
2011,05,24,05,47,5.70
2011,05,24,05,48,5.70
2011,05,24,05,49,5.70
2011,05,24,05,50,5.70
2011,05,24,05,51,5.70
2011,05,24,05,52,5.70
2011,05,24,05,53,5.70
2011,05,24,05,54,5.70
2011,05,24,05,55,5.70
2011,05,24,05,56,5.70
2011,05,24,05,57,5.60
2011,05,24,05,58,5.60
2011,05,24,05,59,5.60
2011,05,24,06,00,5.60
2011,05,24,06,01,5.60
2011,05,24,06,02,5.60
2011,05,24,06,03,5.60
2011,05,24,06,04,5.60
2011,05,24,06,05,5.50
2011,05,24,06,06,5.50
2011,05,24,06,07,5.50
2011,05,24,06,08,5.50
2011,05,24,06,09,5.60
2011,05,24,06,10,5.60
2011,05,24,06,11,5.60
2011,05,24,06,12,5.70
2011,05,24,06,13,5.70
2011,05,24,06,14,5.70
2011,05,24,06,15,5.80
2011,05,24,06,16,6.00
2011,05,24,06,17,6.10
2011,05,24,06,18,6.30
2011,05,24,06,19,6.40
2011,05,24,06,20,6.60
2011,05,24,06,21,6.70
2011,05,24,06,22,6.90
2011,05,24,06,23,7.00
2011,05,24,06,24,7.10
2011,05,24,06,25,7.20
2011,05,24,06,26,7.30
2011,05,24,06,27,7.40
2011,05,24,06,28,7.50
2011,05,24,06,29,7.60
2011,05,24,06,30,7.60
2011,05,24,06,31,7.70
2011,05,24,06,32,7.80
2011,05,24,06,33,7.90
2011,05,24,06,34,7.90
2011,05,24,06,35,7.90
2011,05,24,06,36,8.00
2011,05,24,06,37,8.00
2011,05,24,06,38,8.10
2011,05,24,06,39,8.10
2011,05,24,06,40,8.10
2011,05,24,06,41,8.20
2011,05,24,06,42,8.20
2011,05,24,06,43,8.20
2011,05,24,06,44,8.30
2011,05,24,06,45,8.30
2011,05,24,06,46,8.40
2011,05,24,06,47,8.40
2011,05,24,06,48,8.50
2011,05,24,06,49,8.50
2011,05,24,06,50,8.60
2011,05,24,06,51,8.60
2011,05,24,06,52,8.70
2011,05,24,06,53,8.70
2011,05,24,06,54,8.70
2011,05,24,06,55,8.70
2011,05,24,06,56,8.80
2011,05,24,06,57,8.80
2011,05,24,06,58,8.80
2011,05,24,06,59,8.90
2011,05,24,07,00,8.90
2011,05,24,07,01,8.90
2011,05,24,07,02,9.00
2011,05,24,07,03,9.00
2011,05,24,07,04,9.00
2011,05,24,07,05,9.00
2011,05,24,07,06,9.00
2011,05,24,07,07,9.00
2011,05,24,07,08,9.00
2011,05,24,07,09,9.00
2011,05,24,07,10,9.00
2011,05,24,07,11,9.00
2011,05,24,07,12,9.00
2011,05,24,07,13,9.00
2011,05,24,07,30,10.30
2011,05,24,07,31,10.40
2011,05,24,07,32,10.40
2011,05,24,07,33,10.40
2011,05,24,07,34,10.40
2011,05,24,07,35,10.50
2011,05,24,07,36,10.60
2011,05,24,07,37,10.60
2011,05,24,07,38,10.60
2011,05,24,07,39,10.70
2011,05,24,07,40,10.80
2011,05,24,07,41,10.80
2011,05,24,07,42,10.90
2011,05,24,07,43,10.90
2011,05,24,07,44,10.90
2011,05,24,07,45,11.00
2011,05,24,07,46,11.10
2011,05,24,07,47,11.10
2011,05,24,07,48,11.10
2011,05,24,07,49,11.20
2011,05,24,07,50,11.30
2011,05,24,07,51,11.30
2011,05,24,07,52,11.40
2011,05,24,07,53,11.40
2011,05,24,07,54,11.40
2011,05,24,07,55,11.50
2011,05,24,07,56,11.60
2011,05,24,07,57,11.60
2011,05,24,07,58,11.60
2011,05,24,07,59,11.60
2011,05,24,08,00,11.60
2011,05,24,08,01,11.60
2011,05,24,08,02,11.60
2011,05,24,08,03,11.60
2011,05,24,08,04,11.60
2011,05,24,08,05,11.60
2011,05,24,08,06,11.60
2011,05,24,08,07,11.60
2011,05,24,08,08,11.60
2011,05,24,08,09,11.60
2011,05,24,08,10,11.60
2011,05,24,08,11,11.60
2011,05,24,08,12,11.60
2011,05,24,08,13,11.60
2011,05,24,08,14,11.60
2011,05,24,08,15,11.60
2011,05,24,08,16,11.70
2011,05,24,08,17,11.80
2011,05,24,08,18,11.80
2011,05,24,08,19,11.80
2011,05,24,08,20,11.90
2011,05,24,08,21,11.90
2011,05,24,08,22,12.00
2011,05,24,08,23,12.10
2011,05,24,08,24,12.10
2011,05,24,08,25,12.20
2011,05,24,08,26,12.30
2011,05,24,08,27,12.30
2011,05,24,08,28,12.30
2011,05,24,08,29,12.30
2011,05,24,08,30,12.30
2011,05,24,08,31,12.30
2011,05,24,08,32,12.40
2011,05,24,08,33,12.40
2011,05,24,08,34,12.40
2011,05,24,08,35,12.30
2011,05,24,08,36,12.30
2011,05,24,08,37,12.30
2011,05,24,08,38,12.30
2011,05,24,08,39,12.30
2011,05,24,08,40,12.30
2011,05,24,08,41,12.30
2011,05,24,08,42,12.30
2011,05,24,08,43,12.40
2011,05,24,08,44,12.40
2011,05,24,08,45,12.40
2011,05,24,08,46,12.50
2011,05,24,08,47,12.50
2011,05,24,08,48,12.60
2011,05,24,08,49,12.60
2011,05,24,08,50,12.70
2011,05,24,08,51,12.70
2011,05,24,08,52,12.70
2011,05,24,08,53,12.70
2011,05,24,08,54,12.80
2011,05,24,08,55,12.80
2011,05,24,08,56,12.80
2011,05,24,08,57,12.80
2011,05,24,08,58,12.90
2011,05,24,08,59,13.00
2011,05,24,09,00,13.00
2011,05,24,09,01,13.10
2011,05,24,09,02,13.10
2011,05,24,09,03,13.10
2011,05,24,09,04,13.10
2011,05,24,09,05,13.10
2011,05,24,09,06,13.00
2011,05,24,09,07,13.00
2011,05,24,09,08,13.10
2011,05,24,09,09,13.20
2011,05,24,09,10,13.20
2011,05,24,09,11,13.20
2011,05,24,09,12,13.20
2011,05,24,09,13,13.30
2011,05,24,09,14,13.30
2011,05,24,09,15,13.40
2011,05,24,09,16,13.50
2011,05,24,09,17,13.50
2011,05,24,09,18,13.60
2011,05,24,09,19,13.70
2011,05,24,09,20,13.80
2011,05,24,09,21,13.80
2011,05,24,09,22,13.80
2011,05,24,09,23,13.90
2011,05,24,09,24,13.90
2011,05,24,09,25,13.80
2011,05,24,09,26,13.80
2011,05,24,09,27,13.90
2011,05,24,09,28,14.00
2011,05,24,09,29,14.00
2011,05,24,09,30,14.00
2011,05,24,09,31,14.00
2011,05,24,09,32,14.00
2011,05,24,09,33,14.00
2011,05,24,09,34,14.00
2011,05,24,09,35,14.10
2011,05,24,09,36,14.10
2011,05,24,09,37,14.10
2011,05,24,09,38,14.10
2011,05,24,09,39,14.10
2011,05,24,09,40,14.10
2011,05,24,09,41,13.90
2011,05,24,09,42,13.80
2011,05,24,09,43,13.60
2011,05,24,09,44,13.50
2011,05,24,09,45,13.40
2011,05,24,09,46,13.50
2011,05,24,09,47,13.50
2011,05,24,09,48,13.60
2011,05,24,09,49,13.70
2011,05,24,09,50,13.80
2011,05,24,09,51,13.90
2011,05,24,09,52,13.90
2011,05,24,09,53,14.00
2011,05,24,09,54,13.90
2011,05,24,09,55,13.80
2011,05,24,09,56,13.70
2011,05,24,09,57,13.70
2011,05,24,09,58,13.70
2011,05,24,09,59,13.70
2011,05,24,10,00,13.80
2011,05,24,10,01,13.90
2011,05,24,10,02,13.90
2011,05,24,10,03,13.90
2011,05,24,10,04,13.90
2011,05,24,10,05,13.90
2011,05,24,10,06,13.90
2011,05,24,10,07,13.90
2011,05,24,10,08,13.90
2011,05,24,10,09,13.90
2011,05,24,10,10,13.90
2011,05,24,10,11,13.90
2011,05,24,10,12,13.90
2011,05,24,10,13,13.90
2011,05,24,10,14,13.90
2011,05,24,10,15,13.90
2011,05,24,10,16,13.90
2011,05,24,10,17,13.90
2011,05,24,10,18,13.90
2011,05,24,10,19,13.90
2011,05,24,10,20,13.90
2011,05,24,10,21,13.80
2011,05,24,10,22,13.80
2011,05,24,10,23,13.70
2011,05,24,10,24,13.80
2011,05,24,10,25,13.80
2011,05,24,10,26,13.80
2011,05,24,10,27,13.80
2011,05,24,10,28,13.80
2011,05,24,10,29,13.70
2011,05,24,10,30,13.50
2011,05,24,10,31,13.50
2011,05,24,10,32,13.50
2011,05,24,10,33,13.60
2011,05,24,10,34,13.60
2011,05,24,10,35,13.70
2011,05,24,10,36,13.70
2011,05,24,10,37,13.80
2011,05,24,10,38,13.90
2011,05,24,10,39,13.90
2011,05,24,10,40,13.90
2011,05,24,10,41,13.80
2011,05,24,10,42,13.80
2011,05,24,10,43,13.80
2011,05,24,10,44,13.80
2011,05,24,10,45,13.70
2011,05,24,10,46,13.70
2011,05,24,10,47,13.70
2011,05,24,10,48,13.60
2011,05,24,10,49,13.50
2011,05,24,10,50,13.40
2011,05,24,10,51,13.30
2011,05,24,10,52,13.30
2011,05,24,10,53,13.20
2011,05,24,10,54,13.30
2011,05,24,10,55,13.30
2011,05,24,10,56,13.40
2011,05,24,10,57,13.40
2011,05,24,10,58,13.40
2011,05,24,10,59,13.30
2011,05,24,11,00,13.30
2011,05,24,11,01,13.30
2011,05,24,11,02,13.30
2011,05,24,11,03,13.30
2011,05,24,11,04,13.40
2011,05,24,11,05,13.30
2011,05,24,11,06,13.30
2011,05,24,11,07,13.50
2011,05,24,11,08,13.60
2011,05,24,11,09,13.60
2011,05,24,11,10,13.60
2011,05,24,11,11,13.60
2011,05,24,11,12,13.60
2011,05,24,11,13,13.60
2011,05,24,11,14,13.40
2011,05,24,11,15,13.40
2011,05,24,11,16,13.50
2011,05,24,11,17,13.60
2011,05,24,11,18,13.60
2011,05,24,11,19,13.70
2011,05,24,11,20,13.70
2011,05,24,11,21,13.60
2011,05,24,11,22,13.50
2011,05,24,11,23,13.50
2011,05,24,11,24,13.60
2011,05,24,11,25,13.60
2011,05,24,11,26,13.70
2011,05,24,11,27,13.70
2011,05,24,11,28,13.70
2011,05,24,11,29,13.80
2011,05,24,11,30,13.90
2011,05,24,11,31,14.00
2011,05,24,11,32,14.10
2011,05,24,11,33,14.20
2011,05,24,11,34,14.20
2011,05,24,11,35,14.20
2011,05,24,11,36,14.20
2011,05,24,11,37,14.20
2011,05,24,11,38,14.20
2011,05,24,11,39,14.00
2011,05,24,11,40,14.00
2011,05,24,11,41,13.90
2011,05,24,11,42,14.00
2011,05,24,11,43,14.00
2011,05,24,11,44,14.10
2011,05,24,11,45,14.20
2011,05,24,11,46,14.10
2011,05,24,11,47,14.00
2011,05,24,11,48,13.90
2011,05,24,11,49,13.90
2011,05,24,11,50,14.00
2011,05,24,11,51,14.10
2011,05,24,11,52,14.10
2011,05,24,11,53,14.20
2011,05,24,11,54,14.20
2011,05,24,11,55,14.30
2011,05,24,11,56,14.20
2011,05,24,11,57,14.20
2011,05,24,11,58,14.30
2011,05,24,11,59,14.30
2011,05,24,12,00,14.40
2011,05,24,12,01,14.40
2011,05,24,12,02,14.40
2011,05,24,12,03,14.30
2011,05,24,12,04,14.20
2011,05,24,12,05,14.10
2011,05,24,12,06,14.10
2011,05,24,12,07,14.10
2011,05,24,12,08,14.10
2011,05,24,12,09,14.20
2011,05,24,12,10,14.10
2011,05,24,12,11,14.10
2011,05,24,12,12,14.10
2011,05,24,12,13,14.20
2011,05,24,12,14,14.30
2011,05,24,12,15,14.40
2011,05,24,12,16,14.40
2011,05,24,12,17,14.30
2011,05,24,12,18,14.20
2011,05,24,12,19,14.20
2011,05,24,12,20,14.20
2011,05,24,12,21,14.10
2011,05,24,12,22,13.90
2011,05,24,12,23,13.90
2011,05,24,12,24,13.90
2011,05,24,12,25,13.90
2011,05,24,12,26,14.00
2011,05,24,12,27,14.20
2011,05,24,12,28,14.20
2011,05,24,12,29,14.20
2011,05,24,12,30,14.20
2011,05,24,12,31,14.20
2011,05,24,12,32,14.30
2011,05,24,12,33,14.20
2011,05,24,12,34,14.20
2011,05,24,12,35,14.20
2011,05,24,12,36,14.20
2011,05,24,12,37,14.20
2011,05,24,12,38,14.20
2011,05,24,12,39,14.30
2011,05,24,12,40,14.50
2011,05,24,12,41,14.60
2011,05,24,12,42,14.70
2011,05,24,12,43,14.80
2011,05,24,12,44,14.90
2011,05,24,12,45,14.90
2011,05,24,12,46,14.70
2011,05,24,12,47,14.70
2011,05,24,12,48,14.60
2011,05,24,12,49,14.60
2011,05,24,12,50,14.60
2011,05,24,12,51,14.60
2011,05,24,12,52,14.70
2011,05,24,12,53,14.60
2011,05,24,12,54,14.70
2011,05,24,12,55,14.70
2011,05,24,12,56,14.70
2011,05,24,12,57,14.60
2011,05,24,12,58,14.60
2011,05,24,12,59,14.40
2011,05,24,13,00,14.30
2011,05,24,13,01,14.40
2011,05,24,13,02,14.50
2011,05,24,13,03,14.80
2011,05,24,13,04,14.90
2011,05,24,13,05,15.00
2011,05,24,13,06,15.10
2011,05,24,13,07,15.10
2011,05,24,13,08,15.00
2011,05,24,13,09,14.80
2011,05,24,13,10,14.60
2011,05,24,13,11,14.50
2011,05,24,13,12,14.60
2011,05,24,13,13,14.60
2011,05,24,13,14,14.70
2011,05,24,13,15,14.70
2011,05,24,13,16,14.80
2011,05,24,13,17,14.80
2011,05,24,13,18,14.90
2011,05,24,13,19,14.90
2011,05,24,13,20,14.90
2011,05,24,13,21,14.80
2011,05,24,13,22,14.70
2011,05,24,13,23,14.70
2011,05,24,13,24,14.70
2011,05,24,13,25,14.70
2011,05,24,13,26,14.60
2011,05,24,13,27,14.60
2011,05,24,13,28,14.50
2011,05,24,13,29,14.50
2011,05,24,13,30,14.60
2011,05,24,13,31,14.70
2011,05,24,13,32,14.70
2011,05,24,13,33,14.60
2011,05,24,13,34,14.50
2011,05,24,13,35,14.50
2011,05,24,13,36,14.50
2011,05,24,13,37,14.50
2011,05,24,13,38,14.50
2011,05,24,13,39,14.40
2011,05,24,13,40,14.40
2011,05,24,13,41,14.30
2011,05,24,13,42,14.20
2011,05,24,13,43,14.20
2011,05,24,13,44,14.20
2011,05,24,13,45,14.30
2011,05,24,13,46,14.50
2011,05,24,13,47,14.60
2011,05,24,13,48,14.70
2011,05,24,13,49,14.70
2011,05,24,13,50,14.70
2011,05,24,13,51,14.60
2011,05,24,13,52,14.60
2011,05,24,13,53,14.60
2011,05,24,13,54,14.60
2011,05,24,13,55,14.70
2011,05,24,13,56,14.70
2011,05,24,13,57,14.70
2011,05,24,13,58,14.70
2011,05,24,13,59,14.70
2011,05,24,14,00,14.80
2011,05,24,14,01,15.00
2011,05,24,14,02,15.10
2011,05,24,14,03,15.00
2011,05,24,14,04,14.90
2011,05,24,14,05,14.80
2011,05,24,14,06,14.70
2011,05,24,14,07,14.70
2011,05,24,14,08,14.80
2011,05,24,14,09,14.80
2011,05,24,14,10,15.00
2011,05,24,14,11,15.10
2011,05,24,14,12,15.20
2011,05,24,14,13,15.30
2011,05,24,14,14,15.30
2011,05,24,14,15,15.20
2011,05,24,14,16,15.20
2011,05,24,14,17,15.20
2011,05,24,14,18,15.10
2011,05,24,14,19,14.90
2011,05,24,14,20,14.70
2011,05,24,14,21,14.60
2011,05,24,14,22,14.50
2011,05,24,14,23,14.60
2011,05,24,14,24,14.80
2011,05,24,14,25,15.00
2011,05,24,14,26,15.10
2011,05,24,14,27,15.00
2011,05,24,14,28,14.90
2011,05,24,14,29,14.80
2011,05,24,14,30,14.70
2011,05,24,14,31,14.60
2011,05,24,14,32,14.60
2011,05,24,14,33,14.70
2011,05,24,14,34,14.90
2011,05,24,14,35,15.00
2011,05,24,14,36,15.30
2011,05,24,14,37,15.40
2011,05,24,14,38,15.40
2011,05,24,14,39,15.20
2011,05,24,14,40,15.00
2011,05,24,14,41,14.90
2011,05,24,14,42,14.90
2011,05,24,14,43,14.90
2011,05,24,14,44,15.00
2011,05,24,14,45,15.10
2011,05,24,14,46,15.20
2011,05,24,14,47,15.40
2011,05,24,14,48,15.50
2011,05,24,14,49,15.60
2011,05,24,14,50,15.70
2011,05,24,14,51,15.80
2011,05,24,14,52,15.80
2011,05,24,14,53,15.80
2011,05,24,14,54,15.80
2011,05,24,14,55,15.80
2011,05,24,14,56,15.90
2011,05,24,14,57,16.00
2011,05,24,14,58,16.10
2011,05,24,14,59,15.90
2011,05,24,15,00,15.90
2011,05,24,15,01,15.90
2011,05,24,15,02,15.80
2011,05,24,15,03,15.90
2011,05,24,15,04,15.90
2011,05,24,15,05,15.80
2011,05,24,15,06,15.80
2011,05,24,15,07,15.80
2011,05,24,15,08,15.70
2011,05,24,15,09,15.70
2011,05,24,15,10,15.60
2011,05,24,15,11,15.60
2011,05,24,15,12,15.50
2011,05,24,15,13,15.40
2011,05,24,15,14,15.30
2011,05,24,15,15,15.30
2011,05,24,15,16,15.40
2011,05,24,15,17,15.40
2011,05,24,15,18,15.30
2011,05,24,15,19,15.30
2011,05,24,15,20,15.30
2011,05,24,15,21,15.40
2011,05,24,15,22,15.40
2011,05,24,15,23,15.40
2011,05,24,15,24,15.20
2011,05,24,15,25,15.00
2011,05,24,15,26,15.00
2011,05,24,15,27,14.80
2011,05,24,15,28,14.70
2011,05,24,15,29,14.60
2011,05,24,15,30,14.60
2011,05,24,15,31,14.70
2011,05,24,15,32,14.80
2011,05,24,15,33,14.80
2011,05,24,15,34,14.80
2011,05,24,15,35,14.80
2011,05,24,15,36,14.90
2011,05,24,15,37,15.00
2011,05,24,15,38,15.00
2011,05,24,15,39,15.10
2011,05,24,15,40,15.20
2011,05,24,15,41,15.20
2011,05,24,15,42,15.30
2011,05,24,15,43,15.40
2011,05,24,15,44,15.30
2011,05,24,15,45,15.30
2011,05,24,15,46,15.40
2011,05,24,15,47,15.50
2011,05,24,15,48,15.70
2011,05,24,15,49,15.80
2011,05,24,15,50,15.80
2011,05,24,15,51,15.80
2011,05,24,15,52,15.60
2011,05,24,15,53,15.50
2011,05,24,15,54,15.30
2011,05,24,15,55,15.20
2011,05,24,15,56,15.10
2011,05,24,15,57,15.00
2011,05,24,15,58,15.00
2011,05,24,15,59,15.00
2011,05,24,16,00,15.00
2011,05,24,16,01,15.10
2011,05,24,16,02,15.30
2011,05,24,16,03,15.30
2011,05,24,16,04,15.40
2011,05,24,16,05,15.40
2011,05,24,16,06,15.40
2011,05,24,16,07,15.40
2011,05,24,16,08,15.40
2011,05,24,16,09,15.50
2011,05,24,16,10,15.60
2011,05,24,16,11,15.60
2011,05,24,16,12,15.60
2011,05,24,16,13,15.50
2011,05,24,16,14,15.40
2011,05,24,16,15,15.40
2011,05,24,16,16,15.30
2011,05,24,16,17,15.20
2011,05,24,16,18,15.20
2011,05,24,16,19,15.20
2011,05,24,16,20,15.10
2011,05,24,16,21,15.00
2011,05,24,16,22,15.00
2011,05,24,16,23,15.10
2011,05,24,16,24,15.10
2011,05,24,16,25,15.30
2011,05,24,16,26,15.30
2011,05,24,16,27,15.40
2011,05,24,16,28,15.50
2011,05,24,16,29,15.50
2011,05,24,16,30,15.50
2011,05,24,16,31,15.60
2011,05,24,16,32,15.70
2011,05,24,16,33,15.90
2011,05,24,16,34,16.00
2011,05,24,16,35,15.90
2011,05,24,16,36,15.90
2011,05,24,16,37,15.90
2011,05,24,16,38,15.90
2011,05,24,16,39,15.90
2011,05,24,16,40,15.90
2011,05,24,16,41,15.70
2011,05,24,16,42,15.60
2011,05,24,16,43,15.40
2011,05,24,16,44,15.30
2011,05,24,16,45,15.30
2011,05,24,16,46,15.40
2011,05,24,16,47,15.60
2011,05,24,16,48,15.70
2011,05,24,16,49,15.80
2011,05,24,16,50,15.80
2011,05,24,16,51,15.60
2011,05,24,16,52,15.60
2011,05,24,16,53,15.50
2011,05,24,16,54,15.40
2011,05,24,16,55,15.40
2011,05,24,16,56,15.40
2011,05,24,16,57,15.50
2011,05,24,16,58,15.60
2011,05,24,16,59,15.80
2011,05,24,17,00,15.80
2011,05,24,17,01,15.70
2011,05,24,17,02,15.60
2011,05,24,17,03,15.60
2011,05,24,17,04,15.60
2011,05,24,17,05,15.60
2011,05,24,17,06,15.60
2011,05,24,17,07,15.70
2011,05,24,17,08,15.80
2011,05,24,17,09,15.80
2011,05,24,17,10,15.70
2011,05,24,17,11,15.80
2011,05,24,17,12,15.90
2011,05,24,17,13,16.00
2011,05,24,17,14,16.10
2011,05,24,17,15,16.10
2011,05,24,17,16,16.20
2011,05,24,17,17,16.20
2011,05,24,17,18,16.20
2011,05,24,17,19,16.30
2011,05,24,17,20,16.30
2011,05,24,17,21,16.30
2011,05,24,17,22,16.30
2011,05,24,17,23,16.30
2011,05,24,17,24,16.20
2011,05,24,17,25,16.20
2011,05,24,17,26,16.20
2011,05,24,17,27,16.20
2011,05,24,17,28,16.20
2011,05,24,17,29,16.10
2011,05,24,17,30,16.00
2011,05,24,17,31,15.80
2011,05,24,17,32,15.80
2011,05,24,17,33,15.80
2011,05,24,17,34,15.80
2011,05,24,17,35,15.90
2011,05,24,17,36,16.00
2011,05,24,17,37,16.10
2011,05,24,17,38,16.10
2011,05,24,17,39,16.10
2011,05,24,17,40,16.10
2011,05,24,17,41,16.00
2011,05,24,17,42,15.80
2011,05,24,17,43,15.80
2011,05,24,17,44,15.80
2011,05,24,17,45,15.90
2011,05,24,17,46,15.90
2011,05,24,17,47,15.80
2011,05,24,17,48,15.80
2011,05,24,17,49,15.80
2011,05,24,17,50,15.90
2011,05,24,17,51,16.00
2011,05,24,17,52,16.10
2011,05,24,17,53,16.10
2011,05,24,17,54,16.10
2011,05,24,17,55,16.00
2011,05,24,17,56,15.90
2011,05,24,17,57,15.90
2011,05,24,17,58,15.90
2011,05,24,17,59,15.90
2011,05,24,18,00,15.90
2011,05,24,18,01,16.10
2011,05,24,18,02,16.10
2011,05,24,18,03,16.10
2011,05,24,18,04,16.10
2011,05,24,18,05,16.00
2011,05,24,18,06,15.80
2011,05,24,18,07,15.80
2011,05,24,18,08,15.80
2011,05,24,18,09,15.80
2011,05,24,18,10,16.00
2011,05,24,18,11,16.10
2011,05,24,18,12,16.10
2011,05,24,18,13,16.20
2011,05,24,18,14,16.20
2011,05,24,18,15,16.20
2011,05,24,18,16,16.20
2011,05,24,18,17,16.30
2011,05,24,18,18,16.20
2011,05,24,18,19,16.20
2011,05,24,18,20,16.10
2011,05,24,18,21,16.10
2011,05,24,18,22,16.10
2011,05,24,18,23,16.10
2011,05,24,18,24,16.10
2011,05,24,18,25,16.10
2011,05,24,18,26,16.10
2011,05,24,18,27,16.10
2011,05,24,18,28,16.10
2011,05,24,18,29,16.10
2011,05,24,18,30,16.10
2011,05,24,18,31,16.20
2011,05,24,18,32,16.20
2011,05,24,18,33,16.20
2011,05,24,18,34,16.20
2011,05,24,18,35,16.10
2011,05,24,18,36,16.10
2011,05,24,18,37,16.20
2011,05,24,18,38,16.20
2011,05,24,18,39,16.30
2011,05,24,18,40,16.30
2011,05,24,18,41,16.40
2011,05,24,18,42,16.40
2011,05,24,18,43,16.40
2011,05,24,18,44,16.60
2011,05,24,18,45,16.70
2011,05,24,18,46,16.70
2011,05,24,18,47,16.70
2011,05,24,18,48,16.70
2011,05,24,18,49,16.70
2011,05,24,18,50,16.50
2011,05,24,18,51,16.40
2011,05,24,18,52,16.30
2011,05,24,18,53,16.30
2011,05,24,18,54,16.30
2011,05,24,18,55,16.20
2011,05,24,18,56,16.20
2011,05,24,18,57,16.10
2011,05,24,18,58,16.10
2011,05,24,18,59,16.10
2011,05,24,19,00,16.10
2011,05,24,19,01,16.10
2011,05,24,19,02,16.00
2011,05,24,19,03,15.90
2011,05,24,19,04,15.90
2011,05,24,19,05,15.80
2011,05,24,19,06,15.80
2011,05,24,19,07,15.70
2011,05,24,19,08,15.70
2011,05,24,19,09,15.60
2011,05,24,19,10,15.50
2011,05,24,19,11,15.50
2011,05,24,19,12,15.50
2011,05,24,19,13,15.40
2011,05,24,19,14,15.30
2011,05,24,19,15,15.30
2011,05,24,19,16,15.30
2011,05,24,19,17,15.30
2011,05,24,19,18,15.30
2011,05,24,19,19,15.30
2011,05,24,19,20,15.30
2011,05,24,19,21,15.30
2011,05,24,19,22,15.30
2011,05,24,19,23,15.30
2011,05,24,19,24,15.30
2011,05,24,19,25,15.20
2011,05,24,19,26,15.20
2011,05,24,19,27,15.10
2011,05,24,19,28,15.00
2011,05,24,19,29,15.00
2011,05,24,19,30,14.90
2011,05,24,19,31,14.90
2011,05,24,19,32,14.90
2011,05,24,19,33,14.90
2011,05,24,19,34,14.90
2011,05,24,19,35,14.90
2011,05,24,19,36,14.90
2011,05,24,19,37,14.90
2011,05,24,19,38,14.90
2011,05,24,19,39,15.00
2011,05,24,19,40,15.00
2011,05,24,19,41,15.10
2011,05,24,19,42,15.10
2011,05,24,19,43,15.20
2011,05,24,19,44,15.20
2011,05,24,19,45,15.20
2011,05,24,19,46,15.20
2011,05,24,19,47,15.20
2011,05,24,19,48,15.20
2011,05,24,19,49,15.20
2011,05,24,19,50,15.20
2011,05,24,19,51,15.10
2011,05,24,19,52,15.10
2011,05,24,19,53,15.10